Regional Weather Roundup
Issued by NWS Lake Charles, LA

Home | Current Version | Previous Version | Text Only | Print | Product List | Glossary On
Versions: 1 2 3 4 5 6 7 8 9 10 11 12 13 14 15 16 17 18 19 20 21 22 23 24 25 26 27 28 29 30 31 32 33 34 35 36 37 38 39 40 41 42 43 44 45 46 47 48 49 50
804
ASUS44 KLCH 250010
RWRLCH
REGIONAL WEATHER ROUNDUP
NATIONAL WEATHER SERVICE LAKE CHARLES LA
700 PM CDT SUN JUL 24 2016

Note: "fair" indicates few or no clouds below 12,000 feet with no
significant weather and/or obstructions to visibility.


ACROSS SOUTHEAST TEXAS

CITY           SKY/WX    TMP DP  RH WIND       PRES   REMARKS
BEAUMONT       CLOUDY    88  76  67 S9        29.90F
BEAUMONT CITY  FAIR      85  74  69 CALM      29.92S
ORANGE         CLOUDY    88  71  58 S7        29.93F
JASPER         CLOUDY    84  73  69 E7G18     29.97R
$$

ACROSS CENTRAL LOUISIANA

CITY           SKY/WX    TMP DP  RH WIND       PRES   REMARKS
LEESVILLE      PTSUNNY   81  74  78 NE3       29.94R
FULLERTON      FAIR      81  74  79 CALM      29.92F
ALEXANDRIA INT CLOUDY    81  78  91 NE6       29.93S
ESLER FIELD    CLOUDY    82  77  84 CALM      29.95S
DERIDDER       FAIR      79  78  94 CALM      29.95S
OAKDALE        LGT RAIN  76  75  98 CALM      29.93F
OPELOUSAS      FAIR      83  76  79 NE7       29.93F
$$

ACROSS SOUTHWEST AND SOUTH CENTRAL LOUISIANA

CITY           SKY/WX    TMP DP  RH WIND       PRES   REMARKS
SULPHUR        CLOUDY    85  75  73 NE3       29.94S
LAKE CHARLES   CLOUDY    83  75  77 E6        29.93S
CHENNAULT INT  MOSUNNY   82  75  78 CALM      29.93F
CAMERON PHI    CLEAR     84  77  79 E3        29.92S
DEQUINCY       FAIR      80  73  80 CALM      29.94S
JENNINGS       NOT AVBL
LAFAYETTE      CLOUDY    83  77  82 VRB3      29.94S
NEW IBERIA     CLOUDY    85  74  69 E5        29.95S
ABBEVILLE      FAIR      82  78  88 CALM      29.94F
PATTERSON      CLOUDY    81  77  88 CALM      29.96R
SALT POINT       N/A     81  75  82 CALM      29.94R
$$

SELECTED SITES ACROSS THE REGION

CITY           SKY/WX    TMP DP  RH WIND       PRES   REMARKS
HOUSTON BUSH   PTSUNNY   92  75  57 SE15      29.88S HX 103
HOUSTON HOBBY  PTSUNNY   92  74  55 S12       29.89S HX 101
GALVESTON      MOSUNNY   88  77  69 S10       29.92F HX 100
COLLEGE STAT   SUNNY     97  68  38 S6        29.87F HX 102
CONROE         SUNNY     94  72  48 SE8       29.89S HX 102
HUNTSVILLE     MOSUNNY   96  67  38 VRB5      29.89S HX 100
LUFKIN         CLOUDY    92  72  51 S8        29.90R
SHREVEPORT     CLOUDY    82  72  71 E15       29.97R
MONROE         LGT RAIN  77  76  96 NW3       29.96F
NATCHEZ MS     CLOUDY    84  75  74 N6        29.95F
BATON ROUGE    CLOUDY    84  75  74 E8        29.94F
N.O. INTL ARPT CLOUDY    84  77  79 NW3       29.95S
SLIDELL        CLOUDY    80  75  84 CALM      29.95F
$$

MARINE REPORTS

STATION/POSITION TIME  SKY/WX   TEMP    WIND        PRES    VSBY
                                AIR SEA DIR/SP/G
                 (UTC)          (F)     (DEG/KT/KT) (MB)    (MI)
BUOY 30 S HIGH I 2350            87 91  190/  8/ 10 1013.0F
WVE H/P(F/S)=  1/ 4

SEA RIM ST PARK  0000            86     190/  9/ 10 1013.3F
PORT ARTHUR      2300               90                N/A
SABINE PASS N    2300            88 91                N/A
TEXAS POINT      NOT AVBL
CALCASIEU PASS   2300            87 91                N/A
LK CHARLES BEACH 2300            83 90                N/A
MARSH ISLAND     2300            86                   N/A
FRESH WATER LOCK 2300            87 89                N/A
AMERADA PASS     2300            80 87                N/A
$$




USA.gov is the U.S. government's official web portal to all federal, state and local government web resources and services.